This is the latest recevied weather packets stored in our database for station/object DK4MDA-13. If no packets are shown the sender has not sent any weather packets the latest 10 day(s).
| Time | Temp. | Humidity | Pressure | Rain* | Wind** | Luminosity | Snow |
|---|---|---|---|---|---|---|---|
| 1777907231 | 24.44° C | 48% | 1011.7 hPa | 0 mm | - | - | - |
| 1777906631 | 23.89° C | 46% | 1011.8 hPa | 0 mm | - | - | - |
| 1777906331 | 23.89° C | 46% | 1011.8 hPa | 0 mm | - | - | - |
| 1777906031 | 23.89° C | 46% | 1011.8 hPa | 0 mm | - | - | - |
| 1777905731 | 23.89° C | 47% | 1011.7 hPa | 0 mm | - | - | - |
| 1777905431 | 23.33° C | 48% | 1011.9 hPa | 0 mm | - | - | - |
| 1777905131 | 23.33° C | 47% | 1011.9 hPa | 0 mm | - | - | - |
| 1777904831 | 23.33° C | 47% | 1011.9 hPa | 0 mm | - | - | - |
| 1777904531 | 23.33° C | 48% | 1012 hPa | 0 mm | - | - | - |
| 1777904231 | 23.33° C | 47% | 1012 hPa | 0 mm | - | - | - |
| 1777903931 | 23.33° C | 46% | 1012 hPa | 0 mm | - | - | - |
| 1777903631 | 23.33° C | 47% | 1012 hPa | 0 mm | - | - | - |
| 1777903331 | 23.89° C | 46% | 1012 hPa | 0 mm | - | - | - |
| 1777903031 | 23.33° C | 46% | 1012.1 hPa | 0 mm | - | - | - |
| 1777902731 | 23.89° C | 48% | 1012 hPa | 0 mm | - | - | - |
| 1777902431 | 23.89° C | 46% | 1012.2 hPa | 0 mm | - | - | - |
| 1777902131 | 23.89° C | 47% | 1012.2 hPa | 0 mm | - | - | - |
| 1777901831 | 23.89° C | 46% | 1012.3 hPa | 0 mm | - | - | - |
| 1777901531 | 23.89° C | 46% | 1012.3 hPa | 0 mm | - | - | - |
| 1777901231 | 23.33° C | 50% | 1012.3 hPa | 0 mm | - | - | - |
| 1777900931 | 23.33° C | 48% | 1012.4 hPa | 0 mm | - | - | - |
| 1777900631 | 23.33° C | 49% | 1012.3 hPa | 0 mm | - | - | - |
| 1777900331 | 22.78° C | 51% | 1012.5 hPa | 0 mm | - | - | - |
| 1777900031 | 22.78° C | 51% | 1012.6 hPa | 0 mm | - | - | - |
| 1777899733 | 22.78° C | 51% | 1012.5 hPa | 0 mm | - | - | - |
* Rain latest hour (hover to see other rain measurements)
** Current wind speed in m/s (hover to see current wind gust speed)